Location: Unspecified
(25.6470°N, 106.8560°E)
Time: 10:36:02
(UTC+00:00)

Daily predictions for brighter satellites

Satellite Brightness Start Highest point End
(mag) Time Altitude Azimuth Time Altitude Azimuth Time Altitude Azimuth
SJ-6B 2.7 12:02:43 10° SSE 12:06:26 88° ENE 12:10:12 10° N
CZ-2D R/B 4.0 12:03:57 10° SE 12:07:28 34° ENE 12:11:00 10° N
CZ-3B Rocket 4.2 12:02:44 10° WSW 12:07:39 37° S 12:27:32 10° ESE
COSMOS 2406 3.9 12:03:39 10° NNW 12:09:14 57° WSW 12:14:50 10° S
Cosmos 1151 Rocket 4.3 12:06:17 10° NNW 12:10:22 44° W 12:14:24 10° SSW
Star 37E S/N 40062 3.9 12:09:07 10° WNW 12:10:50 33° N 12:13:16 10° ENE
NOSS 3-2 (A) 3.6 12:08:48 10° S 12:14:17 45° ESE 12:20:04 10° NE
Delta 168 3.2 12:11:14 10° WSW 12:14:45 48° SSE 12:19:39 10° E
Cosmos 1869 3.7 12:16:07 10° N 12:19:54 42° E 12:23:41 10° SSE
GPS 2-15 Rocket1 3.8 12:16:03 10° WSW 12:20:19 36° S 12:24:21 11° ESE
Resurs 1-3 3.9 12:17:44 10° SSE 12:21:55 47° ENE 12:26:08 10° N
ATLAS 2A CENTAUR R/B 4.5 12:18:59 10° WSW 12:23:45 25° S 12:35:27 10° SE
GPS 2-04 Rocket1 2.9 12:20:14 10° WSW 12:23:56 62° NNW 12:27:28 10° ENE
Cosmos 1937 Rocket 4.3 12:22:11 10° SSE 12:26:33 28° E 12:30:54 10° NE
Aurora 2 Rocket 2.4 12:22:18 10° W 12:27:36 83° S 12:31:07 12° E
Helios 1B rocket 3.4 12:25:10 10° NE 12:28:40 27° E 12:32:08 10° SSE
Delta 128 4.0 12:24:15 10° W 12:29:05 70° SSW 12:33:53 14° ESE
Delta 2 Rocket 4.2 12:24:57 10° W 12:31:32 87° S 12:39:28 10° E
NOSS 3-2 (C) 3.6 12:26:24 10° S 12:31:54 45° ESE 12:37:43 10° NE
SL-27 R/B 2.4 12:30:41 10° NNW 12:34:07 87° W 12:37:38 10° SSE
Cosmos 724 4.4 12:27:57 10° SSW 12:34:08 78° ESE 12:40:18 10° NNE
Helios 1A 4.5 12:33:08 14° ESE 12:35:09 20° ENE 12:38:10 10° NNE
Cosmos 1470 Rocket 3.7 12:36:48 10° S 12:41:08 52° E 12:45:30 10° NNE
CZ-3A R/B 1.4 12:36:02 10° WSW 12:43:37 57° S 12:44:59 24° ESE
Cosmos 1400 Rocket 3.5 12:40:03 10° SSW 12:44:06 59° W 12:48:08 10° N
In-Cosmos 22 Rocket 4.3 12:39:50 10° S 12:45:24 59° E 12:51:05 10° NNE
Cosmos 2082 Rocket 2.8 12:41:30 10° N 12:46:45 38° ENE 12:50:04 20° SE
Cosmos 1513 Rocket 4.5 12:41:39 10° N 12:47:37 59° E 12:53:23 11° SSE
Cosmos 923 Rocket 4.0 12:51:10 10° NNW 12:56:27 87° ENE 13:00:44 16° SSE
Spot 2 Rocket 3.8 12:51:52 10° S 12:56:54 69° WSW 13:02:00 10° NNW
COSMOS 2487 3.6 12:59:36 10° NNE 13:02:37 26° ENE 13:02:40 26° ENE
CZ-3B DEB 4.3 12:53:10 10° NW 13:02:53 53° WSW 13:12:35 11° SSE
CENTAUR R/B 3.6 13:04:18 20° E 13:04:18 20° E 13:07:28 10° ENE
PSLV R/B 3.6 13:00:53 10° NW 13:03:54 46° NNE 13:04:30 39° ENE
ERS-1 Rocket 4.2 13:03:08 22° E 13:04:15 24° ENE 13:08:15 10° NNE
Cosmos 1833 Rocket 2.8 13:00:16 10° N 13:05:48 55° ENE 13:08:31 29° SE
FUSE 4.2 13:01:28 10° WSW 13:06:33 47° SSE 13:08:39 31° ESE
Cosmos 2344 4.4 13:06:19 24° ESE 13:06:54 24° ESE 13:12:46 10° ENE
Hubble Space Telescope 1.0 13:06:17 10° WNW 13:10:23 63° N 13:12:07 32° ENE
Cosmos 1315 Rocket 3.5 13:07:03 10° SSW 13:10:55 55° W 13:14:52 10° N
Meteor 2-10 Rocket 3.7 13:06:01 10° N 13:11:50 68° E 13:15:10 26° SSE
Cosmos 2242 Rocket 3.5 13:10:35 10° N 13:15:03 85° W 13:17:27 27° S
USA 186 3.7 13:14:48 13° SW 13:15:57 18° W 13:17:46 10° NW
Resurs 01 Rocket 3.4 13:12:30 10° SSW 13:16:19 29° W 13:20:09 10° NW
CZ-4B DEB 3.8 13:17:16 31° NE 13:17:16 31° NE 13:19:11 10° N
Tsikada Rocket 4.1 13:11:16 10° S 13:17:32 76° W 13:23:45 10° N
Envisat 3.6 13:19:30 15° S 13:23:33 54° W 13:28:31 10° NNW
Cosmos 2112 Rocket 4.1 13:19:08 10° NNW 13:24:29 78° WSW 13:27:06 31° S
Meteor 1-29 3.7 13:22:56 10° N 13:26:21 53° WNW 13:28:12 24° SW
Cosmos 1680 Rocket 4.0 13:22:41 10° NNW 13:27:54 59° WSW 13:30:54 25° S
H-2A ROCKET BODY 1.9 13:25:33 10° WNW 13:28:19 63° N 13:31:38 27° E
Cosmos 1943 Rocket 3.7 13:34:14 21° ENE 13:34:14 21° ENE 13:36:32 10° NE
GPS 2-17 Rocket1 4.0 13:29:17 10° WSW 13:32:13 31° SSW 13:32:13 31° SSW
Cosmos 2369 Rocket 2.1 13:33:37 37° S 13:35:48 64° ESE 13:41:24 10° NNE
H-2A R/B 3.5 13:40:49 24° ENE 13:40:49 24° ENE 13:44:33 10° NNE
Cosmos 1939 Rocket 4.4 13:42:21 24° SW 13:44:01 33° W 13:47:47 10° NNW
SAR-Lupe-4 4.3 13:47:24 52° NW 13:47:24 52° NW 13:50:14 10° NNW
YAOGAN 6 3.6 13:47:04 42° WSW 13:47:14 42° W 13:50:47 10° NNW
COSMOS 2455 2.9 13:42:58 10° SSW 13:48:58 79° WNW 13:55:00 10° NNE
Cosmos 1862 Rocket 4.4 13:45:38 10° NNW 13:49:56 47° W 13:51:04 38° SW
Meteor 2-3 Rocket 4.4 13:46:16 12° SSW 13:51:25 54° W 13:57:01 10° N
Cosmos 1634 Rocket 3.9 13:47:59 10° N 13:54:16 69° E 13:55:06 62° SE
Milstar 3 3.2 13:44:24 10° WSW 13:56:12 76° SSE 13:59:20 40° E
Meteor 1-26 Rocket 4.4 13:51:42 10° NNW 13:57:20 71° W 13:58:41 51° SSW
Nimbus 7 Rocket 4.3 13:59:28 10° NNE 14:05:04 71° E 14:05:04 71° E
Timation 2 Rocket 4.1 14:01:59 10° NNW 14:08:22 73° WSW 14:09:29 60° SSW
Delta 168 3.6 14:06:52 10° W 14:10:57 71° W 14:10:57 71° W
Cosmos 1346 Rocket 4.3 14:08:33 10° NNW 14:11:10 36° NW 14:11:10 36° NW
USA 215 3.2 14:14:12 66° E 14:14:51 71° NE 14:21:23 10° NW
NOSS 3-3 (A) 4.4 14:20:09 10° NNW 14:27:56 74° ENE 14:28:29 71° E
NOSS 3-3 (C) 4.4 14:20:15 10° NNW 14:28:02 73° ENE 14:28:34 71° E
ARGOS 3.6 14:30:26 57° WNW 14:30:26 57° WNW 14:35:00 10° NNW
Cosmos 2082 Rocket 4.2 14:26:32 10° WNW 14:30:27 19° W 14:31:57 18° WSW
Delta 2 Rocket 4.4 14:23:24 10° W 14:30:46 87° N 14:31:43 73° E
Cosmos 2279 Rocket 4.1 14:27:18 10° N 14:32:40 67° N 14:32:40 67° N
SPOT 5 3.8 14:37:12 50° NW 14:37:12 50° NW 14:41:22 10° NNW
Terra 3.9 14:46:29 21° N 14:46:29 21° N 14:48:07 10° N
CENTAUR R/B 3.5 14:51:16 32° W 14:53:06 39° WNW 14:59:04 10° N
Cosmos 1943 Rocket 4.0 15:15:39 26° WNW 15:15:39 26° WNW 15:20:03 10° N
H-2A R/B 4.1 15:21:27 24° WNW 15:21:27 24° WNW 15:24:11 10° NW
ATLAS 5 CENTAUR R/B 4.3 16:01:34 10° NNW 16:04:03 26° NNW 16:04:03 26° NNW
CZ-3 Stage 3 4.4 18:12:38 69° SSE 18:13:05 69° SE 19:20:05 10° ENE
CZ-4C R/B 3.9 18:25:49 10° N 18:32:52 41° ENE 18:35:50 31° ESE
ATLAS 2AS CENTAUR R/B 4.4 18:33:32 24° ESE 18:33:32 24° ESE 18:39:10 10° ENE
Cosmos 2360 Rocket 4.1 18:40:03 24° ENE 18:40:03 24° ENE 18:42:54 10° NE
Cosmos 1980 Rocket 4.4 18:42:07 16° NNW 18:42:07 16° NNW 18:43:43 10° N
Resurs 1-4 Rocket 3.9 18:39:05 10° NNE 18:41:37 27° NE 18:41:37 27° NE
H-2A R/B 4.4 17:50:48 10° W 18:53:42 67° N 19:00:31 10° ENE
CZ-2D R/B 3.5 18:49:52 10° NNE 18:53:07 36° NE 18:53:07 36° NE
ADEOS Rocket 4.1 18:51:44 10° N 18:55:28 37° N 18:55:28 37° N
ARIANE 5 R/B 3.7 19:11:20 10° NNE 19:14:28 38° NNE 19:14:28 38° NNE
SL-16 R/B 3.7 19:18:51 28° NNW 19:18:51 28° NNW 19:21:59 10° N
DELTA 2 R/B (1) 4.4 19:22:04 48° NNE 19:22:04 48° NNE 19:26:16 10° NE
SL-16 R/B 2.6 19:22:12 73° NNE 19:22:12 73° NNE 19:27:53 10° N
Milstar 3 3.2 19:24:48 57° SSE 19:24:48 57° SSE 19:33:10 10° ESE
Cosmos 2322 Rocket 3.8 19:29:35 24° NW 19:29:35 24° NW 19:32:42 10° N
OAO 3 Rocket 4.3 19:35:51 40° NNE 19:35:51 40° NNE 19:39:35 10° NE
SEDSat Delta rocket 4.3 19:52:03 32° E 19:52:03 32° E 19:54:35 10° ENE
Cosmos 2228 3.9 19:52:16 44° NNE 19:52:16 44° NNE 19:55:12 10° N
Cosmos 2184 Rocket 4.3 19:52:20 50° WNW 19:52:20 50° WNW 19:57:46 10° N
Cosmos 2237 4.0 19:52:07 88° SW 19:52:10 89° WNW 19:57:53 10° NNE
Cosmos 2058 Rocket 3.8 19:56:01 46° N 19:56:01 46° N 19:59:17 10° N
Intercosmos 24 4.3 20:07:07 53° NE 20:07:07 53° NE 20:10:26 10° NNE
OAO 3 Copernicus 4.3 20:07:27 62° NW 20:08:17 82° NNE 20:13:22 10° ESE
Meteor 2-19 Rocket 4.3 20:07:08 53° S 20:08:45 85° W 20:14:55 10° N
Cosmos 1707 3.3 20:05:18 10° N 20:08:29 55° NNE 20:08:29 55° NNE
Cosmos 1953 Rocket 4.1 20:04:46 10° NNW 20:08:08 48° NNW 20:08:08 48° NNW
Okean O Rocket 3.2 20:08:08 10° NE 20:12:07 32° E 20:14:23 20° SSE
USA 161 3.4 20:12:42 31° ENE 20:12:42 31° ENE 20:15:13 10° NNE
BREEZE-M DEB (TANK) 4.4 20:13:22 14° NNW 20:13:22 14° NNW 20:15:14 10° NNE
Atlas Centaur 2 3.9 20:13:22 13° SE 20:13:31 13° SE 20:15:47 10° ESE
Cosmos 389 Rocket 3.2 20:14:00 50° ENE 20:14:00 50° ENE 20:17:05 10° NNE
COSMOS 2428 2.6 20:14:09 58° SW 20:15:18 79° WNW 20:21:04 10° NNE
SeaSat 1 4.5 20:13:29 10° ESE 20:17:37 28° ENE 20:21:46 10° N
CZ-4C R/B 3.5 20:14:32 10° NW 20:20:46 35° WSW 20:20:46 35° WSW
Cosmos 2360 Rocket 3.4 20:21:51 26° WNW 20:21:56 26° WNW 20:26:34 10° N
Resurs 1-4 Rocket 4.1 20:20:43 10° NW 20:22:42 14° WNW 20:22:42 14° WNW
ATLAS 2AS CENTAUR R/B 3.2 20:21:00 38° WSW 20:23:36 53° WNW 20:31:25 10° NNE
Cosmos 1544 3.9 20:22:56 40° SE 20:23:43 48° E 20:27:17 10° NNE
MOS 1-B 4.2 20:18:29 10° N 20:24:18 80° WNW 20:26:36 39° SSW
Cosmos 2263 Rocket 2.3 20:21:12 10° NNW 20:26:41 50° WSW 20:27:41 45° SW
Meteor 2-5 Rocket 3.7 20:21:14 10° N 20:26:55 88° W 20:31:26 17° S
Cosmos 2237 Rocket 3.5 20:22:44 13° SSE 20:27:05 35° ESE 20:32:08 10° NE
Cosmos 1340 Rocket 3.9 20:23:36 10° N 20:27:24 43° E 20:30:51 12° SSE
Cosmos 2219 Rocket 2.3 20:25:20 34° S 20:27:52 75° ESE 20:33:32 10° NNE
ADEOS II 2.1 20:23:02 10° NNE 20:28:18 80° ESE 20:30:55 31° S
Delta 142 3.4 20:27:29 50° NW 20:28:23 71° N 20:32:35 10° E
Cosmos 962 Rocket 4.4 20:29:47 36° SSW 20:32:21 66° W 20:38:25 10° N
Nadezhda 3 Rocket 3.9 20:26:33 10° N 20:32:48 79° W 20:38:09 15° S
SL-8 Rocket 4.2 20:28:21 15° S 20:33:34 72° E 20:39:52 10° N
CZ-2D R/B 4.2 20:32:49 10° NW 20:34:26 12° WNW 20:34:26 12° WNW
Cosmos 2333 Rocket 2.4 20:31:37 26° S 20:34:56 68° ESE 20:40:36 10° NNE
Cosmos 1805 3.8 20:33:25 27° SSE 20:35:17 54° E 20:39:06 10° NNE
CZ-4B R/B 2.8 20:33:20 10° NNE 20:37:13 80° ESE 20:38:43 37° S
Cosmos 1378 3.3 20:34:57 10° NNW 20:38:19 51° WNW 20:38:19 51° WNW
CZ-4B R/B 3.7 20:33:57 10° NNE 20:39:32 60° ESE 20:44:38 12° S
Cosmos 1184 Rocket 2.7 20:39:54 10° NNW 20:43:06 63° W 20:43:06 63° W
Aureole 2 Rocket 2.8 20:42:16 45° SW 20:43:26 72° WNW 20:47:36 10° N
Meteor 1-24 Rocket 3.7 20:40:14 10° N 20:45:40 80° E 20:51:17 10° S
Meteor 2-21 4.5 20:40:42 12° S 20:46:15 80° E 20:52:21 10° N
Cosmos 1953 3.4 20:42:36 11° SSE 20:46:18 44° E 20:50:09 10° NNE
Cosmos 1844 Rocket 4.0 20:43:15 10° N 20:48:36 42° ENE 20:53:55 10° SE
Cosmos 44 3.0 20:47:52 10° NNW 20:52:18 90° NE 20:56:56 10° SSE
Cosmos 1271 Rocket 4.3 20:53:18 21° WNW 20:53:18 21° WNW 20:56:03 10° NNW
CZ-4B DEB 4.2 20:52:44 10° N 20:58:19 83° WNW 21:03:25 12° SSW
Meteor 1-31 Rocket 3.4 21:05:58 10° NNE 21:09:44 56° E 21:13:31 10° S
Meteor PRIRODA 3.7 21:06:25 10° NNE 21:10:09 78° E 21:13:52 10° S
SL-16 R/B 3.8 21:06:22 10° SSE 21:11:24 34° ESE 21:16:26 10° NE
ATLAS 3B R/B 4.0 21:05:37 10° N 21:11:48 41° ENE 21:17:48 10° SE
Cosmos 2366 rocket 3.9 21:05:44 10° S 21:11:50 73° W 21:17:59 10° N
Meteor 2-21 Rocket 4.4 21:06:28 10° S 21:12:29 75° W 21:18:34 10° N
Abrixas rocket 2.3 21:12:10 22° SSW 21:14:07 69° SE 21:17:25 10° NE
Cosmos 1470 3.1 21:15:24 10° S 21:19:19 68° E 21:23:14 10° NNE
PSLV R/B 4.5 21:16:54 10° NNW 21:20:47 31° WNW 21:23:49 15° SW
IRS-1C Rocket 4.3 21:16:17 10° N 21:21:22 51° WNW 21:26:26 10° SSW
SWIFT 3.2 21:19:39 18° WSW 21:22:12 32° S 21:26:03 10° SE
Cosmos 44 Rocket 3.8 21:18:34 10° NW 21:22:50 34° WSW 21:27:09 10° S
NOSS 0 Rocket 4.2 21:19:50 13° SW 21:25:12 51° WNW 21:31:13 10° N
Cosmos 2218 Rocket 4.4 21:21:21 10° SSW 21:27:14 45° W 21:33:14 10° N
Cosmos 482 Debris 2.4 21:26:28 22° SW 21:27:28 78° NW 21:29:43 10° NE
Cosmos 1844 4.0 21:22:35 10° NNW 21:28:12 75° ENE 21:33:51 10° SSE
Intelsat 5-1 Rocket 3.9 21:26:00 10° W 21:31:32 78° S 21:49:37 10° E
Cosmos 1818 3.6 21:30:13 10° SSW 21:35:36 78° WNW 21:41:03 10° NNE
Iridium 2 4.4 21:32:31 10° SSE 21:36:14 56° E 21:39:57 10° NNE
SEDSat Delta rocket 3.7 21:32:27 10° W 21:36:31 48° N 21:41:03 10° ENE
Cosmos 1607 4.0 21:31:50 10° NNW 21:38:13 67° WSW 21:44:35 10° SSE
Tiangong 1 1.6 21:41:21 10° SSW 21:43:59 42° SE 21:46:38 10° ENE
Cosmos 1356 Rocket 3.8 21:41:03 10° NNW 21:44:48 39° W 21:48:31 10° SSW
NOAA 6 4.2 21:40:33 10° NNE 21:45:40 78° ESE 21:50:46 10° S
Okean O Rocket 3.4 21:45:34 10° NW 21:48:09 15° WNW 21:50:45 10° WSW
